Theta_e
308 308 308 309 311 314 319 320 319 317 315 313 312 310 311 311 312 316 329 333 334 339 347 349 353 353 356 354 353 352 362 345 346 345 344 340 344 345 345 348 348 347 346 345 343
309 309 309 310 311 314 315 319 319 317 315 314 312 310 311 311 319 327 330 327 334 340 348 353 356 355 358 358 350 352 359 346 343 344 344 342 341 343 344 347 348 349 347 345 345
309 310 310 310 312 313 315 314 317 317 315 314 311 311 311 311 330 330 324 337 344 346 350 355 347 345 358 354 352 351 349 345 343 343 344 344 342 341 344 345 349 352 349 346 345
309 310 310 311 312 314 316 312 313 315 314 312 310 311 311 322 338 327 323 333 346 350 354 355 346 346 354 355 348 352 345 344 345 344 345 344 344 343 343 343 347 348 346 346 345
309 309 310 311 312 314 317 314 311 312 312 310 311 311 317 331 335 326 326 330 346 350 354 352 358 359 361 350 348 349 345 344 345 343 344 343 345 345 345 342 345 346 346 346 344
310 310 310 310 311 313 317 316 311 311 310 311 311 311 324 333 334 327 330 333 346 350 345 348 345 345 351 346 347 345 345 346 345 346 345 344 342 344 343 342 346 346 347 346 345
310 310 310 310 311 312 317 315 312 311 311 311 311 318 329 333 332 333 337 343 346 343 344 344 340 348 347 353 347 346 346 346 346 347 347 348 345 343 343 341 346 347 348 347 347
310 310 310 310 311 313 316 313 312 312 312 311 311 325 334 330 332 333 336 343 344 339 341 345 341 342 345 351 353 354 352 359 349 347 349 349 352 345 343 343 344 346 347 347 346
311 311 310 310 311 315 316 312 312 312 312 311 319 326 332 329 330 330 337 341 340 341 341 344 339 344 352 354 357 353 360 359 356 347 348 351 354 348 344 344 346 347 347 347 347
311 311 311 310 311 318 318 314 316 311 313 323 326 330 327 330 330 330 334 339 340 344 346 347 341 352 354 355 363 353 351 352 355 350 347 349 353 349 346 345 344 345 345 346 346
310 310 311 310 311 319 319 324 328 327 326 324 326 328 327 330 331 329 332 338 340 346 350 345 341 349 351 350 350 347 345 352 354 353 353 351 354 352 349 348 346 344 345 345 345
311 310 311 310 310 318 318 334 331 332 331 324 325 325 328 329 330 330 330 339 345 349 346 347 342 343 348 350 347 342 343 352 350 348 351 361 352 352 351 350 349 347 344 345 345
311 311 311 310 311 317 323 329 329 329 332 329 326 326 328 328 328 330 330 336 343 347 345 348 344 340 338 341 341 340 348 351 352 348 349 353 351 349 350 351 350 350 348 346 346
312 311 311 310 318 326 327 329 329 329 334 333 329 327 327 327 327 330 330 331 334 335 339 341 340 338 338 336 337 340 342 341 341 345 352 350 358 355 353 353 351 350 351 350 347
312 312 311 310 318 329 332 330 329 329 342 332 328 328 329 328 330 328 330 329 331 333 334 336 335 335 334 337 337 337 337 339 341 342 341 346 352 354 353 355 354 352 350 350 350
312 312 311 313 314 322 328 329 329 333 340 330 328 328 328 328 330 329 328 329 329 329 330 330 332 331 331 334 334 335 335 335 338 339 339 344 339 354 356 350 347 348 347 349 350
313 314 311 321 328 325 326 330 334 336 336 333 329 328 329 329 330 329 329 329 328 327 328 328 328 330 328 330 331 333 334 337 340 341 341 338 332 347 350 342 341 342 340 344 346
314 314 318 312 323 326 328 333 339 339 337 333 331 329 329 331 330 329 330 329 328 328 328 329 329 328 328 327 330 333 333 335 343 339 338 337 336 337 336 335 334 335 335 336 340
316 324 322 316 318 326 331 336 338 338 336 334 332 330 330 331 331 330 330 331 331 329 329 331 331 329 328 328 328 331 334 334 334 335 336 335 335 334 333 335 343 345 351 352 345
318 330 328 324 320 328 334 335 336 336 335 334 335 333 333 332 332 332 332 332 331 331 330 330 333 332 330 328 328 328 330 332 334 336 338 337 337 336 337 340 339 341 347 351 349
322 334 328 323 325 331 336 335 335 335 334 334 334 335 335 334 333 331 332 332 331 331 331 330 331 333 332 332 330 328 328 329 330 332 335 336 341 338 339 342 338 336 339 339 343
330 335 329 324 328 331 334 334 329 335 332 332 333 335 337 336 334 334 331 333 332 331 331 331 330 332 333 334 332 331 333 331 330 336 334 334 337 335 335 334 338 339 342 342 343
332 335 330 326 329 329 330 332 334 333 333 332 332 333 334 336 337 336 334 336 334 333 336 335 333 331 332 333 333 332 332 332 332 333 336 337 337 335 335 337 340 340 341 345 345
331 331 331 329 330 333 336 334 333 329 329 330 332 333 333 335 335 337 337 336 335 334 343 335 334 335 334 334 335 337 334 335 334 333 333 333 335 335 339 338 340 343 345 347 352
330 332 333 334 330 330 333 332 333 331 329 329 330 330 332 334 335 336 336 336 336 340 334 334 336 335 334 334 335 336 336 337 336 334 334 335 337 337 345 341 340 343 346 349 352
328 329 329 331 332 331 326 331 332 330 331 330 329 330 330 331 335 338 339 338 339 337 337 336 339 336 337 336 337 338 338 337 336 336 336 336 336 336 340 341 342 343 345 346 348
322 325 326 325 326 327 328 329 330 329 328 327 329 329 330 331 330 331 332 333 335 337 338 339 340 341 341 338 337 338 336 336 337 336 335 337 337 336 342 341 339 341 342 343 342
Wind_Speed
16 17 16 15 13 11 7 6 6 6 7 7 8 7 7 10 11 9 10 4 6 3 9 11 15 14 7 11 12 9 5 7 15 18 13 12 13 21 19 17 10 3 16 22 23
16 17 16 15 14 11 8 5 5 6 7 7 7 7 7 11 11 15 10 6 7 7 11 18 10 7 10 11 2 3 4 19 14 15 16 14 12 16 13 13 13 21 23 25 23
16 17 17 15 13 11 8 5 5 6 7 6 6 7 8 8 8 3 10 7 8 10 16 20 33 20 13 12 2 3 1 20 15 14 11 13 14 13 15 13 15 19 19 19 21
17 18 18 16 13 11 7 5 4 5 6 5 5 7 9 3 3 5 9 9 9 8 15 19 24 5 13 4 6 7 17 17 17 11 11 13 10 13 14 16 17 18 19 17 17
17 17 17 15 13 11 6 4 4 3 4 4 5 6 5 8 5 8 10 9 9 9 18 14 27 17 4 3 6 10 12 16 12 13 13 10 10 9 7 16 17 18 17 17 15
17 17 17 15 13 11 5 4 3 3 4 3 4 6 5 11 5 11 10 11 12 14 17 14 10 10 12 5 8 7 12 15 16 8 7 13 10 12 10 13 18 17 16 15 15
18 17 16 15 12 11 5 3 2 2 3 3 3 3 9 11 2 9 12 13 12 11 17 6 10 13 12 9 11 4 7 11 14 11 6 2 12 13 12 12 19 16 14 14 15
19 17 16 14 12 9 4 3 3 3 3 5 4 3 7 5 5 9 13 14 14 12 15 14 10 5 11 5 15 15 14 9 6 9 9 2 12 13 13 13 14 16 14 13 13
19 17 16 14 12 6 3 3 3 4 4 5 5 8 11 5 10 13 15 14 12 13 14 14 10 8 11 13 9 3 13 14 18 7 15 8 4 15 16 15 14 14 13 12 13
19 17 16 13 12 4 4 3 4 4 5 6 14 8 13 11 10 10 14 13 11 10 12 14 13 7 9 11 6 7 7 7 8 2 10 14 13 14 13 17 15 15 15 14 14
19 17 15 12 10 4 4 3 4 5 12 11 14 11 7 6 8 9 13 11 12 12 12 14 11 7 12 17 16 9 2 1 10 10 9 11 16 16 14 13 15 15 15 15 15
19 18 15 11 9 6 9 7 6 8 6 21 16 18 2 8 10 12 14 11 12 13 15 14 12 10 21 23 13 11 6 5 5 2 5 26 6 10 18 13 16 16 16 16 16
21 18 15 10 8 8 14 17 8 9 7 15 16 12 13 10 13 13 14 14 14 14 16 19 4 5 2 8 9 14 7 7 8 10 6 7 3 11 6 16 13 16 18 16 18
23 19 14 9 5 9 16 15 8 7 6 14 17 12 16 12 14 12 17 14 11 13 15 12 6 4 8 9 8 4 7 4 9 4 8 14 4 2 11 14 17 12 18 18 19
25 21 12 8 12 8 4 2 7 4 5 14 16 11 12 14 7 11 11 14 14 12 8 13 7 9 7 11 10 10 6 11 11 10 16 19 6 7 21 20 19 18 15 17 19
27 20 8 5 9 14 8 5 6 6 6 10 10 12 16 17 8 9 9 12 8 14 13 16 13 6 11 9 7 8 7 12 14 14 9 14 8 2 8 8 9 13 11 16 18
26 14 10 9 7 11 9 8 6 9 11 12 16 15 16 15 15 10 11 12 12 10 14 16 16 15 8 11 7 9 13 10 10 9 5 7 4 10 27 11 8 4 2 11 13
16 8 6 20 7 7 9 7 8 13 9 7 12 15 15 16 16 12 13 13 16 17 14 12 12 21 15 11 10 11 13 8 11 9 2 8 5 6 9 5 2 10 10 9 12
8 8 9 12 15 10 7 10 10 8 13 2 9 14 16 16 8 14 14 14 14 15 14 10 6 11 11 11 11 12 9 13 12 11 8 2 9 14 8 12 10 12 8 2 7
7 11 12 10 14 11 8 16 17 8 8 8 11 9 12 15 13 10 12 11 14 13 11 9 6 7 8 2 11 13 12 9 7 4 7 7 2 11 9 14 11 13 10 6 6
5 5 10 11 13 7 11 16 18 4 5 8 13 16 9 12 16 13 9 10 8 8 8 11 10 3 9 8 12 8 10 11 13 10 10 5 3 11 9 10 8 11 17 16 6
9 5 12 13 8 9 12 18 12 4 4 7 8 13 15 10 15 12 15 8 11 5 5 11 13 12 14 11 14 14 12 12 9 12 7 10 6 15 12 9 17 16 13 14 15
5 6 10 13 8 11 17 18 3 7 6 10 7 8 10 10 8 12 8 10 5 4 4 9 7 11 13 13 14 13 12 11 14 12 11 8 5 15 11 13 14 14 11 10 9
5 4 5 7 11 14 12 14 11 5 10 6 11 10 6 10 12 6 11 10 6 3 8 2 14 15 12 13 16 10 11 8 14 11 12 11 14 7 11 7 15 14 10 8 8
4 4 5 1 9 13 14 10 10 9 7 1 8 11 11 12 12 13 13 12 8 9 4 6 15 16 17 21 20 19 16 10 11 11 12 13 15 13 12 8 10 13 10 10 11
6 5 9 11 4 7 2 8 9 1 3 6 5 14 3 4 10 14 12 6 13 10 8 8 14 14 19 18 21 22 19 18 15 18 16 16 19 17 8 11 10 9 11 10 10
14 11 6 6 7 8 5 3 4 6 4 5 9 9 6 11 12 12 10 11 12 9 7 10 10 11 16 16 16 20 15 16 20 21 20 18 14 13 12 12 7 6 10 9 10
Wind_Direction
5 2 359 356 352 342 312 288 283 276 277 284 290 285 293 296 293 274 253 245 204 231 195 244 235 248 241 307 300 300 317 36 99 100 102 123 117 116 133 122 145 136 147 134 144
2 359 357 356 352 346 325 291 275 269 274 284 285 284 294 306 295 261 229 243 223 216 212 229 251 265 230 195 191 329 273 75 87 123 120 129 124 122 137 132 116 113 115 139 149
359 358 357 356 352 349 332 305 275 270 276 280 277 287 299 324 273 181 187 199 201 209 243 284 45 38 325 325 201 211 176 78 89 103 109 103 136 147 135 146 142 132 138 151 156
357 356 355 354 353 350 340 323 288 268 272 273 278 295 309 292 325 131 169 190 188 212 263 268 92 340 250 212 305 275 81 98 114 135 141 115 152 130 181 137 137 140 152 157 163
355 352 353 353 349 348 335 322 293 268 263 256 276 300 310 234 246 158 177 188 198 226 252 274 140 196 113 130 237 286 100 100 95 84 115 129 123 109 90 124 129 143 158 163 170
354 350 350 349 346 342 323 301 284 272 255 248 281 304 259 258 96 167 180 193 220 223 259 267 348 301 123 176 176 152 109 121 98 123 116 106 126 134 130 141 138 152 165 171 168
353 349 346 345 344 336 309 286 269 251 256 245 265 301 261 269 238 187 199 212 231 255 284 326 329 28 67 282 253 100 141 134 135 167 112 109 133 101 138 160 150 163 177 178 166
350 348 343 341 342 331 291 263 243 233 232 256 261 251 268 193 228 210 211 227 246 259 271 297 308 287 155 282 327 44 22 352 250 137 117 325 108 126 143 148 155 167 182 181 174
348 345 342 339 338 323 264 239 227 228 230 244 255 219 253 175 214 220 215 229 236 254 260 274 283 348 50 42 1 46 167 222 261 159 145 134 189 140 160 154 165 175 181 185 183
344 342 341 336 337 294 223 240 260 233 228 246 267 250 224 220 198 197 207 229 270 249 251 249 257 124 98 108 239 255 236 124 209 219 196 185 158 148 174 162 170 183 180 185 186
341 338 338 332 332 259 195 250 214 199 227 212 184 232 148 137 143 220 204 208 251 260 258 247 273 156 145 210 210 233 131 17 145 179 237 242 152 165 166 186 168 180 183 186 195
340 336 333 322 317 241 225 250 354 335 234 229 271 217 286 178 197 213 195 214 221 243 229 247 242 175 172 208 250 283 208 48 159 245 302 341 40 179 163 191 180 182 180 191 190
338 332 326 312 301 236 227 267 325 321 268 198 210 219 207 208 234 197 195 214 236 225 260 263 270 340 253 260 239 266 113 172 229 188 194 186 107 289 276 173 200 184 177 190 188
337 329 320 304 280 230 229 247 267 300 276 178 200 223 195 211 229 221 192 225 231 264 260 287 236 92 291 245 295 332 0 284 280 221 247 169 184 315 289 257 171 205 180 184 188
336 323 306 264 305 262 41 234 305 255 269 129 173 205 172 205 144 192 181 224 253 229 270 265 232 260 240 266 295 305 38 307 313 276 269 211 107 203 210 238 174 188 195 194 181
334 317 287 254 251 251 312 274 245 235 242 158 142 187 193 212 192 135 206 228 247 261 270 262 300 305 290 248 273 291 299 253 242 248 272 143 252 57 28 241 175 171 188 193 190
331 305 239 224 225 218 243 246 222 248 141 151 171 193 206 194 224 173 194 202 222 217 243 240 248 250 217 270 244 240 258 259 229 238 169 109 282 136 192 157 114 106 220 178 196
322 287 266 228 259 257 232 226 253 258 200 116 167 186 206 202 215 185 203 217 218 241 280 243 232 206 210 222 255 212 260 294 309 333 190 184 121 96 69 74 151 175 210 243 197
302 256 225 229 220 242 231 224 236 297 3 151 174 187 204 221 215 196 214 224 225 211 256 297 253 124 194 198 225 259 269 289 313 303 275 253 88 125 119 124 98 60 33 352 234
314 259 208 162 187 216 229 242 260 349 350 328 279 211 234 206 187 226 205 225 235 203 215 282 287 185 188 227 263 263 279 280 213 262 273 266 208 115 148 123 104 99 99 68 82
255 241 122 166 184 219 228 239 247 161 18 272 277 288 260 264 196 227 216 207 222 198 214 245 250 234 137 215 247 192 237 251 285 303 306 283 55 140 125 111 105 109 45 26 38
292 266 136 169 199 226 234 243 278 314 144 263 278 292 306 301 279 216 247 333 168 208 253 244 270 252 231 213 209 258 269 199 224 227 266 301 86 106 111 118 85 72 53 35 11
278 278 154 200 225 227 222 247 209 289 250 264 250 258 298 288 310 311 301 86 76 216 32 345 251 249 256 264 209 216 239 259 284 292 285 286 109 124 137 111 91 87 67 50 17
279 253 152 210 259 291 288 230 243 162 291 321 296 330 295 267 269 270 290 152 125 64 11 327 270 289 282 296 337 315 203 240 268 259 250 240 264 300 75 82 114 94 76 60 46
246 307 12 255 218 254 269 314 244 187 195 341 274 252 267 276 262 253 236 262 157 146 220 253 257 277 285 293 301 303 300 280 241 262 269 294 311 320 76 63 35 78 70 66 51
336 351 344 288 292 323 317 255 276 249 135 294 228 293 328 287 330 343 360 3 315 141 207 240 260 266 275 283 290 289 289 287 281 282 287 284 285 301 64 83 56 46 57 54 47
360 320 284 293 262 253 289 238 202 343 76 323 336 340 276 20 337 329 323 315 317 331 317 302 313 310 281 289 291 271 265 267 270 274 269 263 290 279 72 57 37 74 59 40 40